STARLINK-1094, 44941

Orbit data source: Space-Track

STARLINK-1094, 44941 is a payload satellite owned by SpaceX/Seattle (US) in LEO that was launched on Tue, 07 Jan 2020 UTC via an FALCON 9 launch vehicle from the Air Force Eastern Test Range (AFETR). Payload-class satellites include a variety of spacecraft equipped with specific instruments for various scientific and technological missions. These include communications satellites like Starlink; space stations such as the ISS; scientific satellites like the Hubble; Earth observation satellites from companies like Planet Labs, Umbra, and HawkEye 360; GPS; miniature CubeSats for education and research; and military/defense satellites.

Loading next visibility...
Identifier
44941, 2020-001AD
Orbit
LEO
Country
Flag of USUS
Related business
Manufacturer
SpaceX/Seattle
Mission
Operational Commercial Communications
Bus & Motor
STARLINK, Unknown motor
Mass
260 kg wet, ~248 kg dry
Launch date (UTC)
2020-01-07 (6 years ago)
Launch vehicle
FALCON 9
Launch site
Air Force Eastern Test Range (AFETR)
Object type
Payload
Rocket body
Debris
Shape & HBR
Box + 1 Pan, 10.1 m
Radar Cross Section
13.562 m², Large (>1 m²)

Expand to show TLE details & history
Last TLE update: 19 hours ago

TLE from 19 hours ago
0 STARLINK-1094
1 44941U 20001AD  25340.38619815  .00018091  00000-0  12305-2 0  9992
2 44941  53.0556  25.4778 0001480  74.4752 285.6400 15.06394523326063
Epoch: 2025-12-06T09:16Z
TLE epoch observation values (Epoch: 2025-12-06T09:16:07.520Z)
Latitude
-0.00003°
Longitude
171.03176°
Altitude
547.831 km
Speed
7.589 km/s
True Right ascension
01h 41m 54s
True Declination
0° 00' 00"
Sunlit
Object was in full shadow at epoch
Visualization orbit readout
Latitude
Unknown
Longitude
Unknown
Altitude
Unknown
Speed
Unknown
Apparent Right ascension
Unknown
Apparent Declination
Unknown
Sunlit
N/A
Visualization observer readout
Local Sidereal Time
02:34:39
Azimuth
Unknown
Elevation
Unknown
Doppler factor
Unknown
Orbital elements
Apogee altitude
548.524 km
Perigee altitude
546.474 km
Semi-major axis
6,925.636 km
Eccentricity
0.00015
Inclination
53.0556°
RAAN
25.4778°
Arg. of periapsis
74.4752°
True anomaly
285.62367°
Mean anomaly
285.64°
Eccentric anomaly
285.63183°
Mean motion
3.76577 °/min
Orbital period
95.6 mins
BSTAR
0.0012305
Loading maneuver chart data...
Computing Atmospheric mass density...

Documentation

Showing up to 5 results
|